FALCON 9 DEB (52507 NORAD) Tracking and Keplerian Element Data
This shows tracking and keplerian element data for the satellite.
Feedback or suggestion? Click here.
Element | Value |
Catalog | 52507 |
Name | FALCON 9 DEB |
Epoch Orbit | 650 |
Epoch Day | 166.96829204 |
Epoch Year | 2022 |
RAAN | 57.7688 |
Inclination | 53.1895 |
Eccentricity | 0.0007235 |
Argument of Perigee | 261.1816 |
Mean Anonmoly | 98.8409 |
Mean Motion | 16.30460997 |
Decay Rate | 0.03330398 |
L1 | 1 52507U 22049BJ 22166.96829204 .03330398 12078-4 67674-3 0 9997 |
L2 | 2 52507 53.1895 57.7688 0007235 261.1816 98.8409 16.30460997 6509 |
Live tracking and technical data element details for FALCON 9 DEB (NORAD 52507). FALCON 9 DEB can be tracked NOW for your location showing map with azimuth and elevation plus other details from your city location.
Track the satellite on the map from your city or location and see movement details for azimuth, elevation, latitude, longitude, range, height, and movement on the map or in text.
IsCatalogInMostPopularTable: catalog: 52507, numindb: 1
Update: records affected: 1
GetName: 52507 FALCON 9 DEB
Hit Count: updated at: Sat, 25 Jun 2022 04:00:27 GMT